Flag for Germany Weather past 2 weeks in Itzehoe, Schleswig-Holstein, Germany

Now
61 °F

Passing clouds.


Feels Like: 61 °F
Forecast: 60 / 73 °F
Wind: 7 mph from Northwest

Location: Hohn

Current Time: Jul 30, 2014 at 7:37:51 AM

Latest Report: Jul 30, 2014 at 6:20 AM


Visibility: N/A

Pressure: 29.80 "Hg

Humidity: 83%

Dew point: 55 °F

Location of ItzehoeLocation

Historic Weather in Itzehoe — Graph

°F

Itzehoe temperature yesterday

Maximum temperature yesterday: 82 °F (at 2:20 PM)
Minimum temperature yesterday: 59 °F (at 2:20 AM)
Average temperature yesterday: 72 °F

Past Weeks' High & Low Weather Summary

 TemperatureHumidityPressure
High88 °F (Jul 19, 2:20 PM)100% (Jul 16, 6:20 AM)30.21 "Hg (Jul 16, 6:20 AM)
Low48 °F (Jul 17, 4:20 AM)30% (Jul 25, 5:20 PM)29.77 "Hg (Jul 30, 4:20 AM)
Average70 °F69%30.02 "Hg
* Reported Jul 15 6:20 AM — Jul 30 6:20 AM, Itzehoe, Weather by CustomWeather, © 2014

Note: Actual official high and low records may vary slightly from our data, if they occured in-between our weather recording intervals... More about our weather records

Advertising

Itzehoe weather history for previous 24 hours

 ConditionsComfort  
Time TempWeatherWind HumidityBarometerVisibility
6:20 AM
Jul 30
61 °FPassing clouds.7 mph83%29.80 "HgN/A
5:20 AM61 °FPassing clouds.6 mph83%29.77 "HgN/A
4:20 AM61 °FCool.6 mph83%29.77 "Hg5 mi
3:20 AM61 °FCool.7 mph88%29.80 "Hg5 mi
2:20 AM63 °FMild.6 mph83%29.80 "Hg5 mi
1:20 AM63 °FMild.5 mph83%29.80 "Hg5 mi
12:20 AM64 °FMild.7 mph83%29.80 "Hg6 mi
11:20 PM
Jul 29
66 °FMild.5 mph78%29.80 "Hg6 mi
10:20 PM70 °FMild.7 mph73%29.80 "Hg6 mi
9:20 PM73 °FScattered clouds.9 mph65%29.80 "HgN/A
8:20 PM79 °FScattered clouds.3 mph54%29.80 "HgN/A
7:20 PM79 °FScattered clouds.7 mph51%29.80 "HgN/A
6:20 PM82 °FPassing clouds.9 mph45%29.80 "HgN/A
5:20 PM82 °FScattered clouds.8 mph45%29.80 "HgN/A
4:20 PM82 °FScattered clouds.8 mph45%29.80 "HgN/A
3:20 PM81 °FScattered clouds.8 mph51%29.83 "HgN/A
2:20 PM82 °FScattered clouds.8 mph51%29.86 "HgN/A
1:20 PM79 °FScattered clouds.8 mph58%29.86 "HgN/A
12:20 PM79 °FPassing clouds.9 mph58%29.86 "HgN/A
11:20 AM79 °FPassing clouds.9 mph58%29.86 "HgN/A
10:20 AM75 °FPassing clouds.10 mph69%29.89 "HgN/A
9:20 AM73 °FScattered clouds.14 mph74%29.89 "HgN/A
8:45 AM72 °FScattered clouds.12 mph83%29.89 "Hg5 mi
8:20 AM72 °FFog.9 mph83%29.89 "Hg3 mi
7:57 AM70 °FFog.7 mph88%29.89 "Hg3 mi
7:46 AM70 °FFog.7 mph88%29.89 "Hg3 mi
7:20 AM68 °FFog.5 mph88%29.89 "Hg2 mi
Weather by CustomWeather, © 2014

See weather overviewHow to use our weather pages